TimeSAST,TemperatureF,Dew PointF,Humidity,Sea Level PressureIn,VisibilityMPH,Wind Direction,Wind SpeedMPH,Gust SpeedMPH,PrecipitationIn,Events,Conditions,WindDirDegrees,DateUTC
12:00 AM,68.0,60.8,78,29.86,6.2,North,3.5,-,N/A,,Mostly Cloudy,10,2013-02-27 22:00:00
1:00 AM,68.0,60.8,78,29.83,6.2,NNW,3.5,-,N/A,,Mostly Cloudy,340,2013-02-27 23:00:00
2:00 AM,67,60,72,29.83,12,North,3.5,,,,,350,2013-02-28 00:00:00
2:00 AM,66.2,60.8,83,29.83,6.2,Variable,2.3,-,N/A,,Partly Cloudy,0,2013-02-28 00:00:00
3:00 AM,64.4,59.0,83,29.83,6.2,Variable,2.3,-,N/A,,Scattered Clouds,0,2013-02-28 01:00:00
4:00 AM,64.4,60.8,88,29.86,6.2,Calm,Calm,-,N/A,,Mostly Cloudy,0,2013-02-28 02:00:00
5:00 AM,63,61,89,29.89,3,SSW,21.9,,,Rain,Light Rain,210,2013-02-28 03:00:00
5:00 AM,62.6,60.8,94,29.89,2.8,SSW,19.6,-,N/A,Rain,Light Rain,210,2013-02-28 03:00:00
6:00 AM,62.6,59.0,88,29.92,2.8,SW,16.1,-,N/A,Rain,Light Rain,230,2013-02-28 04:00:00
7:00 AM,60.8,59.0,94,29.98,2.2,West,12.7,-,N/A,Rain,Light Rain,260,2013-02-28 05:00:00
8:00 AM,60,58,93,30.02,2,WSW,10.4,,,Rain,Light Rain,250,2013-02-28 06:00:00
8:00 AM,60.8,59.0,94,30.01,1.6,WSW,10.4,-,N/A,Rain,Light Rain,250,2013-02-28 06:00:00
9:00 AM,59.0,57.2,94,30.04,1.6,SW,10.4,-,N/A,Rain,Light Rain,230,2013-02-28 07:00:00
10:00 AM,59.0,57.2,94,30.06,2.8,West,10.4,-,N/A,Rain,Light Rain,280,2013-02-28 08:00:00
11:00 AM,61,58,85,30.11,2,NW,6.9,,,Rain,Light Rain,310,2013-02-28 09:00:00
11:00 AM,60.8,55.4,82,30.09,1.7,WNW,6.9,-,N/A,Rain,Light Rain,300,2013-02-28 09:00:00
1:00 PM,64.4,51.8,64,30.12,6.2,SW,6.9,-,N/A,,Mostly Cloudy,230,2013-02-28 11:00:00
2:00 PM,64,54,62,30.14,12,WNW,5.8,,,,Mostly Cloudy,300,2013-02-28 12:00:00
2:00 PM,64.4,53.6,68,30.12,6.2,WNW,5.8,-,N/A,,Mostly Cloudy,300,2013-02-28 12:00:00
3:00 PM,62.6,55.4,77,30.12,6.2,WNW,8.1,-,N/A,,Mostly Cloudy,290,2013-02-28 13:00:00
4:00 PM,64.4,51.8,64,30.09,6.2,Variable,4.6,-,N/A,,Mostly Cloudy,0,2013-02-28 14:00:00
5:00 PM,65,54,58,30.12,12,South,4.6,,,,Mostly Cloudy,190,2013-02-28 15:00:00
5:00 PM,64.4,53.6,68,30.09,6.2,South,4.6,-,N/A,,Mostly Cloudy,190,2013-02-28 15:00:00
6:00 PM,62.6,55.4,77,30.12,6.2,NE,3.5,-,N/A,,Mostly Cloudy,40,2013-02-28 16:00:00
7:00 PM,59.0,55.4,88,30.12,6.2,NE,4.6,-,N/A,Rain,Light Rain,50,2013-02-28 17:00:00
8:00 PM,59,56,85,30.14,12,North,8.1,,,Rain,Light Rain,10,2013-02-28 18:00:00
8:00 PM,59.0,55.4,88,30.15,6.2,North,6.9,-,N/A,,Mostly Cloudy,360,2013-02-28 18:00:00
9:00 PM,60.8,55.4,82,30.18,6.2,WNW,5.8,-,N/A,,Overcast,300,2013-02-28 19:00:00
10:00 PM,60.8,55.4,82,30.18,6.2,NW,3.5,-,N/A,,Mostly Cloudy,320,2013-02-28 20:00:00
11:00 PM,60.8,53.6,77,30.18,6.2,NW,2.3,-,N/A,,Overcast,320,2013-02-28 21:00:00